Temp
53 52 52 49 48 50 50 50 49 48 47 48 48 48 49 50 51 52 53 56 59 62 69 71 71 68 67 67 66 67 66 65
51 51 49 47 48 48 48 47 47 46 45 43 44 44 46 48 50 51 51 53 56 58 61 69 70 70 69 67 66 64 62 64
51 49 46 45 45 45 46 46 46 45 45 45 45 44 46 47 49 51 52 53 55 57 58 64 69 69 67 66 66 64 64 64
47 48 44 42 42 43 44 44 44 45 45 45 45 45 46 46 47 49 52 52 53 53 57 60 66 67 67 67 67 67 64 62
46 45 44 42 41 43 43 43 43 45 44 42 42 42 41 45 46 48 50 52 51 53 56 58 62 67 67 68 70 69 67 63
44 43 42 41 40 39 40 42 43 44 43 43 42 42 43 45 46 46 48 51 53 53 55 57 58 65 68 68 67 67 69 67
45 44 42 39 40 39 40 41 41 43 42 43 42 42 42 43 44 45 47 50 53 53 55 57 59 63 66 67 67 68 69 69
40 39 37 39 38 38 39 39 39 42 42 42 43 43 43 43 44 45 46 48 51 53 55 55 58 62 66 66 62 58 65 65
39 37 35 37 37 37 37 37 40 42 42 42 42 43 43 44 44 45 46 47 50 55 55 56 59 62 62 62 58 58 56 65
37 37 36 35 35 36 35 36 39 42 41 41 42 43 42 42 42 44 46 49 51 53 56 56 60 61 59 59 57 56 58 65
38 37 36 36 35 36 36 36 38 40 40 40 42 41 43 42 42 42 44 46 49 52 55 57 58 58 59 59 58 58 60 62
38 37 36 35 35 35 35 36 37 38 39 39 40 41 41 41 40 41 43 45 48 51 54 56 58 56 57 57 58 59 58 55
38 37 35 34 34 34 35 36 36 38 38 39 40 40 40 40 39 40 42 43 46 47 50 53 54 57 58 58 57 60 58 56
37 34 29 31 33 33 34 36 36 37 38 39 39 38 38 38 38 39 41 42 43 45 47 48 54 55 57 59 60 59 60 58
36 31 27 27 30 32 34 35 37 37 37 38 38 37 37 37 38 38 39 41 41 42 44 49 47 56 56 57 59 58 58 57
36 31 27 25 27 29 34 34 36 36 37 38 38 37 37 38 37 37 38 39 39 40 40 42 42 40 40 42 55 56 56 55
36 36 33 28 30 33 34 33 35 35 37 37 38 37 36 36 35 35 36 37 38 37 37 37 38 38 35 37 39 51 58 57
35 35 33 32 31 34 32 34 35 34 35 35 37 36 34 34 35 34 33 34 36 36 35 35 35 36 34 36 38 47 56 60
35 34 33 32 32 33 33 34 33 33 34 34 35 35 33 33 33 31 32 32 33 34 34 33 33 35 34 35 37 50 53 56
MSLP
1019.07 1019.10 1019.22 1019.64 1019.96 1020.05 1019.97 1019.72 1019.32 1018.86 1018.35 1017.58 1016.89 1016.44 1015.89 1015.15 1014.55 1013.80 1013.02 1012.39 1011.51 1010.74 1009.42 1008.90 1008.83 1008.93 1009.35 1009.86 1010.28 1010.53 1011.05 1011.54
1019.31 1019.24 1019.81 1020.16 1020.17 1020.04 1019.90 1019.71 1019.18 1018.73 1018.18 1017.45 1016.67 1016.15 1015.36 1014.70 1014.14 1013.55 1012.91 1012.12 1011.56 1010.75 1009.79 1008.41 1008.04 1007.91 1008.08 1008.82 1009.51 1010.16 1010.59 1011.07
1019.30 1019.43 1019.78 1020.00 1020.27 1020.67 1020.41 1019.97 1019.55 1019.23 1018.68 1018.09 1017.40 1016.45 1015.22 1014.58 1013.70 1013.02 1012.41 1011.70 1011.01 1010.32 1009.36 1008.47 1007.28 1007.23 1007.23 1007.67 1008.29 1009.20 1009.76 1010.10
1019.73 1020.01 1020.50 1020.55 1020.85 1020.84 1020.54 1020.19 1019.73 1019.16 1018.72 1017.99 1017.15 1016.25 1014.94 1014.07 1013.27 1012.38 1011.67 1011.27 1010.66 1010.22 1009.18 1008.04 1007.01 1006.51 1006.32 1006.35 1007.01 1007.42 1008.54 1009.24
1020.04 1020.09 1020.27 1020.81 1021.40 1021.35 1020.71 1020.10 1019.64 1019.14 1018.73 1018.03 1017.37 1016.35 1015.08 1014.16 1012.97 1011.85 1010.96 1010.35 1009.81 1009.26 1008.40 1007.40 1006.63 1005.56 1005.66 1005.30 1005.40 1005.86 1006.99 1007.87
1020.35 1020.79 1021.37 1021.68 1021.55 1020.93 1020.36 1019.94 1019.68 1019.16 1018.61 1018.27 1017.33 1016.22 1015.23 1013.88 1012.60 1011.35 1010.26 1009.32 1008.64 1007.80 1007.02 1006.20 1005.58 1004.85 1004.08 1004.36 1004.64 1005.17 1005.68 1006.69
1020.50 1021.23 1021.69 1021.98 1021.50 1020.60 1019.91 1019.85 1019.80 1019.08 1018.58 1017.93 1017.09 1016.03 1014.74 1013.36 1012.18 1010.85 1009.46 1008.24 1007.07 1006.24 1005.55 1004.70 1004.04 1003.70 1003.14 1003.11 1003.97 1003.42 1003.86 1005.25
1020.91 1021.39 1021.99 1021.89 1020.68 1019.99 1020.10 1020.11 1019.51 1019.10 1018.25 1017.32 1016.75 1015.63 1014.44 1013.03 1011.72 1010.29 1008.91 1007.56 1006.29 1004.77 1004.09 1003.25 1002.49 1002.29 1001.90 1002.28 1002.08 1001.75 1003.83 1004.46
1021.50 1021.93 1021.70 1021.22 1020.76 1020.64 1020.84 1020.42 1019.69 1018.69 1017.97 1017.29 1016.48 1015.34 1014.27 1012.70 1011.36 1009.93 1008.36 1006.92 1005.22 1003.33 1002.35 1001.59 1001.00 1000.62 1000.85 1000.76 1001.73 1001.56 1004.10 1003.71
1021.67 1021.42 1021.19 1021.22 1020.96 1021.03 1021.27 1020.64 1019.67 1018.49 1017.86 1017.28 1016.04 1014.83 1013.71 1012.30 1011.11 1009.77 1008.06 1006.17 1004.19 1002.16 1000.29 1000.08 999.81 999.36 1000.02 1000.46 1001.22 1002.92 1003.32 1003.16
1021.16 1021.08 1021.49 1021.53 1021.32 1021.38 1021.23 1020.42 1019.46 1018.50 1017.83 1017.08 1015.83 1014.78 1013.43 1012.24 1010.97 1009.13 1007.51 1005.76 1003.62 1001.21 999.32 999.09 998.66 998.62 999.14 999.72 1000.20 1000.99 1002.41 1001.86
1021.27 1021.97 1021.70 1021.18 1020.94 1021.06 1020.61 1020.05 1019.47 1018.48 1017.68 1016.72 1015.58 1014.32 1013.19 1011.80 1010.51 1008.98 1006.97 1005.47 1003.40 1001.26 999.43 998.57 997.86 997.96 998.28 998.80 999.24 999.93 1000.96 1002.62
1021.84 1021.90 1021.59 1021.29 1021.03 1020.66 1020.48 1020.24 1019.67 1018.54 1017.53 1016.49 1015.40 1014.22 1013.04 1011.43 1010.05 1008.59 1006.98 1004.82 1003.43 1001.88 1000.34 998.91 998.40 997.84 997.39 997.71 998.77 999.09 999.96 1001.08
1021.84 1021.99 1021.87 1021.85 1021.47 1021.06 1020.88 1020.43 1019.59 1018.51 1017.48 1016.32 1015.21 1013.98 1012.98 1011.48 1009.97 1008.56 1007.05 1005.20 1003.77 1002.04 1000.76 999.34 998.32 997.99 997.45 997.46 997.60 997.36 998.73 999.93
1021.77 1022.13 1021.82 1022.15 1021.90 1021.66 1020.99 1020.19 1019.37 1018.49 1017.59 1016.42 1015.30 1014.03 1012.95 1011.54 1010.10 1008.63 1007.25 1005.81 1004.14 1002.78 1001.62 999.55 998.67 997.67 997.89 997.76 996.94 996.74 997.26 999.13
1021.47 1021.76 1021.99 1022.57 1022.38 1021.55 1020.50 1019.95 1019.36 1018.50 1017.61 1016.57 1015.48 1014.28 1013.05 1011.78 1010.42 1009.01 1007.84 1006.05 1004.98 1004.24 1002.33 1000.96 1000.09 1000.20 999.56 998.97 997.53 996.98 996.86 997.80
1021.50 1021.72 1022.48 1022.72 1021.94 1021.04 1020.40 1019.95 1019.39 1018.65 1017.77 1016.73 1015.62 1014.47 1013.23 1012.07 1010.76 1009.34 1008.01 1006.96 1005.68 1004.99 1003.85 1002.60 1001.24 1000.64 1000.24 999.13 998.08 996.91 997.04 997.52
1021.60 1022.15 1022.43 1022.42 1021.96 1021.23 1020.57 1020.06 1019.43 1018.88 1017.97 1016.97 1016.01 1014.96 1013.75 1012.43 1011.47 1010.18 1008.72 1007.59 1006.49 1005.18 1004.33 1003.76 1002.16 1001.38 1000.15 999.07 998.32 996.88 996.31 996.68
1021.93 1021.98 1022.30 1022.43 1021.98 1021.47 1020.87 1020.31 1019.60 1018.99 1017.97 1017.12 1016.33 1015.37 1014.29 1013.18 1012.13 1010.94 1009.67 1008.53 1007.47 1006.38 1005.12 1003.65 1002.93 1002.05 1000.43 998.37 996.51 995.39 995.65 995.94
Wind_Speed
7 7 10 9 8 8 10 11 11 12 10 9 8 8 9 9 10 10 15 13 18 15 13 15 11 8 9 8 10 9 8 9
5 8 7 6 8 11 13 14 14 12 12 13 13 13 12 10 10 15 17 15 16 16 14 14 15 12 12 11 8 10 5 7
8 9 9 9 8 9 13 13 13 11 10 11 11 12 10 12 12 13 14 17 16 15 16 16 16 14 12 12 13 7 6 10
7 8 6 5 8 11 12 13 12 11 14 11 11 12 12 12 11 13 13 16 17 17 17 15 18 13 14 15 15 16 11 8
6 8 11 9 8 9 9 12 12 12 15 13 17 14 16 14 14 13 15 18 18 19 18 17 17 13 17 14 16 15 14 13
8 7 5 4 6 7 9 11 13 14 14 15 13 15 14 13 14 20 17 16 20 18 18 17 16 15 17 19 17 17 15 13
6 6 6 5 7 8 11 13 14 15 15 16 17 18 18 16 16 15 14 14 13 17 18 17 15 15 17 18 18 21 18 16
5 5 4 8 13 14 13 14 16 16 17 18 18 19 20 19 19 16 18 15 13 18 18 18 15 15 17 14 16 10 10 15
4 0 3 9 12 13 12 13 16 16 19 19 17 17 13 14 16 17 15 16 16 21 20 20 18 15 14 12 10 9 20 15
2 4 6 7 8 11 11 11 13 16 17 17 18 17 18 17 21 20 16 20 18 20 18 18 19 14 14 13 11 19 20 16
4 6 5 4 4 7 10 10 13 14 16 15 15 18 18 18 18 20 21 21 22 22 13 15 10 12 13 16 14 14 14 21
7 4 5 4 5 7 10 11 13 14 15 16 18 16 18 16 16 18 19 20 20 18 10 9 11 13 13 13 15 13 14 7
3 5 7 7 6 8 11 11 12 14 15 16 17 17 18 18 16 19 19 19 18 17 15 10 6 11 16 17 17 15 14 10
2 5 5 5 6 7 9 10 10 13 14 17 19 18 18 18 19 19 19 18 18 17 16 14 10 9 12 16 18 17 21 16
1 4 5 5 6 7 8 10 11 13 14 15 19 19 19 18 18 19 19 18 18 17 15 16 15 11 9 11 16 18 17 17
4 4 5 4 5 5 9 8 12 13 14 15 16 18 18 18 18 18 18 19 17 17 16 13 14 13 11 11 9 15 16 16
5 6 3 3 5 9 10 8 12 12 14 15 16 17 18 18 18 18 17 17 18 16 16 14 12 10 24 19 9 8 17 17
5 5 5 5 6 8 9 10 11 12 13 13 14 17 17 18 18 17 18 18 17 17 16 13 12 12 28 23 15 11 12 17
4 5 5 5 6 8 7 10 11 12 13 13 14 15 15 17 17 17 17 15 15 15 15 17 14 11 29 27 21 4 5 4
Wind_Direction
83 77 62 48 33 20 5 354 346 342 333 325 320 315 310 306 300 299 302 299 297 303 271 249 225 204 205 203 195 190 186 192
73 64 67 44 30 13 5 355 349 348 344 339 331 323 317 306 304 300 298 291 288 287 292 259 241 221 206 200 192 183 175 178
44 42 37 31 19 1 353 351 344 341 336 327 320 314 307 305 299 297 296 294 287 272 269 281 250 239 209 192 188 174 186 173
42 40 46 34 21 356 352 346 336 337 336 321 318 306 306 308 303 302 299 295 291 286 287 279 268 239 232 198 200 185 189 187
37 27 22 17 360 334 337 346 336 336 334 327 322 311 306 303 300 297 296 292 284 280 276 268 279 237 235 214 202 197 183 188
39 46 32 2 316 338 341 344 337 333 333 326 315 305 301 299 299 297 290 283 281 272 266 263 256 261 232 227 210 200 195 193
50 47 18 329 333 350 356 346 335 333 328 322 317 309 305 304 298 294 291 288 280 268 259 256 249 251 239 225 237 202 193 197
63 31 344 339 1 2 352 341 334 329 328 330 319 313 309 307 309 298 297 288 278 269 257 251 240 241 233 219 218 274 249 200
67 116 359 7 3 356 337 331 325 330 332 325 317 313 311 308 306 298 293 286 279 273 254 248 240 229 215 227 187 198 257 222
106 38 14 358 -0 346 323 312 323 331 331 322 318 316 315 314 314 302 297 297 289 286 254 240 240 213 190 187 193 193 214 225
34 35 345 330 343 323 319 319 325 326 325 324 317 316 315 314 310 306 305 301 299 295 248 236 220 201 189 196 203 184 186 241
18 325 319 353 345 324 332 333 325 329 325 327 322 319 317 316 315 312 309 309 313 322 294 255 194 186 185 190 207 197 190 230
328 335 339 1 346 345 341 328 324 329 326 328 327 324 325 324 323 320 320 325 325 326 326 277 270 205 194 188 195 196 215 206
335 336 328 357 347 335 328 322 322 331 332 335 334 331 331 329 328 329 330 332 329 331 325 311 254 224 204 202 205 204 204 222
358 317 352 358 338 307 316 328 339 335 336 336 337 335 334 333 330 333 333 337 338 342 329 3 359 226 223 227 205 200 204 208
38 355 358 337 295 295 341 336 343 340 341 343 339 336 336 334 335 333 340 341 346 341 349 1 19 9 0 324 229 197 200 221
38 12 13 300 334 358 348 340 345 342 337 338 344 342 338 339 336 337 340 346 347 350 354 351 3 358 341 327 299 210 206 214
36 3 52 11 353 352 346 351 342 342 335 339 341 346 340 344 338 339 344 345 344 350 351 350 2 344 341 336 286 223 194 198
40 34 51 15 358 355 349 352 347 342 341 343 344 343 344 344 343 343 343 342 347 347 348 348 359 346 346 347 336 247 151 147